Flight Information

DEPARTURE
FLAGSTAFF, AZ
Elevation:
7014
Runways:
3/21 - 8800x150 - ASPH-E
ATIS:
125.8
Ground:
121.9
Tower:
FLAGSTAFF TOWER 134.55
DESTINATION
,
Elevation:
TPA:
1000 (est.)


6454.2 NM77° True-13° Var63° HDG

Flight Plan:
(click to file on line)

1. Type
2. Aircraft Identification
3. Aircraft Type / Special Equipment
4. True Airspeed
kts
5. Departure Airport
(ICAO code)
6. Arriving Airport
(ICAO code)
7. Cruising Altitude
ft
8. Alternate Airport
(ICAO code)
9. Route of Flight
10. Remarks


00:00:00 Departure ATIS: Destination ATIS:

Clearance Limit:
Route:
Altitude: Expect in minutes
Frequency:
Transponder: (7500 Hijack / 7600 Lost Comms / 7700 Emergency)


KFLG 190057Z 00000KT 10SM BKN100 05/M12 A2992 RMK AO2 SLP120 T00501117
Time: 2021-01-19T00:57:00Z
1611018809
Winds: calm
Visibility: 10.0 sm
Clouds (AGL): BKN 10000
Temperature: 5.0 C
Dew Point: -11.7 C
Pressure: 29.920275 in Hgbr


Notes:

Data extracted from FAA Digital Chart Supplement. Effective: 0901Z Thursday, Dec 31, 2020 to 0901Z Thursday, Jan 28, 2021
Current ATIS data is provided courtisy of PilotEdge.